When you browse on this site, cookies collect data to enhance your experience and personalize the content and advertising you see.
Visit our Privacy Policy to learn more. By continuing to use the site, you agree to this use of cookies and data.
  • Em Portugal
  • Lista de países
  • Para 7 dias
  • Temperatura da água
  • Mapas de satélite
  • Mapa do tempo
  • Widgets de tempo
  • user-avatar
    Iniciar Sessão

    Previsão horária em Golden Sands

    Hoje, 21 Abril, Domingo

    Tempo Temperatura Precipitação Vento Pressão Humidade
    00:00 +5°C° 0 mm 5 m/s 768 mmHg 56%
    01:00 +5°C° 0 mm 5 m/s 768 mmHg 57%
    02:00 +5°C° 0 mm 5 m/s 768 mmHg 57%
    03:00 +5°C° 0 mm 5 m/s 768 mmHg 61%
    04:00 +5°C° 0 mm 5 m/s 768 mmHg 65%
    05:00 +5°C° 0 mm 5 m/s 768 mmHg 69%
    06:00 +6°C° 0 mm 5 m/s 768 mmHg 67%
    07:00 +7°C° 0 mm 5 m/s 767 mmHg 65%
    08:00 +8°C° 0 mm 5 m/s 767 mmHg 64%
    09:00 +11°C° 0 mm 4 m/s 767 mmHg 59%
    10:00 +12°C° 0 mm 3 m/s 767 mmHg 55%
    11:00 +14°C° 0 mm 2 m/s 767 mmHg 51%
    12:00 +14°C° 0 mm 2 m/s 767 mmHg 53%
    13:00 +13°C° 0 mm 3 m/s 767 mmHg 55%
    14:00 +12°C° 0 mm 3 m/s 767 mmHg 57%
    15:00 +12°C° 0 mm 3 m/s 766 mmHg 59%
    16:00 +11°C° 0 mm 3 m/s 766 mmHg 61%
    17:00 +11°C° 0 mm 3 m/s 766 mmHg 64%
    18:00 +10°C° 0 mm 3 m/s 766 mmHg 66%
    19:00 +9°C° 0 mm 3 m/s 766 mmHg 69%
    20:00 +8°C° 0 mm 3 m/s 766 mmHg 72%
    21:00 +8°C° 0 mm 2 m/s 766 mmHg 72%
    22:00 +8°C° 0 mm 2 m/s 766 mmHg 73%
    23:00 +8°C° 0 mm 2 m/s 766 mmHg 73%

    Amanhã, 22 Abril, Segunda-feira

    Tempo Temperatura Precipitação Vento Pressão Humidade
    00:00 +8°C° 0 mm 2 m/s 766 mmHg 73%
    01:00 +8°C° 0 mm 2 m/s 766 mmHg 74%
    02:00 +7°C° 0 mm 2 m/s 766 mmHg 75%
    03:00 +7°C° 0 mm 3 m/s 766 mmHg 75%
    04:00 +7°C° 0 mm 3 m/s 765 mmHg 76%
    05:00 +7°C° 0 mm 3 m/s 765 mmHg 77%
    06:00 +7°C° 0 mm 4 m/s 765 mmHg 74%
    07:00 +8°C° 0 mm 4 m/s 766 mmHg 70%
    08:00 +9°C° 0 mm 5 m/s 766 mmHg 67%
    09:00 +10°C° 0 mm 5 m/s 766 mmHg 65%
    10:00 +10°C° 0 mm 5 m/s 766 mmHg 62%
    11:00 +11°C° 0 mm 6 m/s 766 mmHg 60%
    12:00 +12°C° 0 mm 5 m/s 766 mmHg 58%
    13:00 +12°C° 0 mm 5 m/s 766 mmHg 57%
    14:00 +12°C° 0 mm 5 m/s 766 mmHg 55%
    15:00 +11°C° 0 mm 4 m/s 766 mmHg 57%
    16:00 +11°C° 0 mm 4 m/s 766 mmHg 58%
    17:00 +11°C° 0 mm 4 m/s 766 mmHg 59%
    18:00 +10°C° 0 mm 4 m/s 766 mmHg 63%
    19:00 +8°C° 0 mm 4 m/s 766 mmHg 67%
    20:00 +7°C° 0 mm 4 m/s 767 mmHg 71%
    21:00 +7°C° 0 mm 4 m/s 767 mmHg 73%
    22:00 +7°C° 0 mm 4 m/s 767 mmHg 76%
    23:00 +7°C° 0 mm 4 m/s 767 mmHg 78%

    Depois de amanhã, 23 Abril, Terça-feira

    Tempo Temperatura Precipitação Vento Pressão Humidade
    00:00 +8°C° 0 mm 3 m/s 767 mmHg 80%
    01:00 +7°C° 0 mm 3 m/s 767 mmHg 82%
    02:00 +7°C° 0 mm 2 m/s 767 mmHg 84%
    03:00 +7°C° 0 mm 2 m/s 767 mmHg 85%
    04:00 +7°C° 0 mm 3 m/s 767 mmHg 85%
    05:00 +7°C° 0 mm 3 m/s 767 mmHg 86%
    06:00 +8°C° 0 mm 3 m/s 767 mmHg 83%
    07:00 +9°C° 0 mm 3 m/s 768 mmHg 80%
    08:00 +10°C° 0 mm 4 m/s 768 mmHg 77%
    09:00 +10°C° 0 mm 4 m/s 768 mmHg 73%
    10:00 +11°C° 0 mm 4 m/s 768 mmHg 69%
    11:00 +12°C° 0 mm 4 m/s 768 mmHg 65%
    12:00 +12°C° 0 mm 5 m/s 768 mmHg 64%
    13:00 +12°C° 0 mm 5 m/s 768 mmHg 63%
    14:00 +12°C° 0 mm 5 m/s 768 mmHg 61%
    15:00 +12°C° 0 mm 5 m/s 767 mmHg 65%
    16:00 +10°C° 0 mm 5 m/s 767 mmHg 68%
    17:00 +10°C° 0 mm 5 m/s 767 mmHg 71%
    18:00 +9°C° 0 mm 5 m/s 767 mmHg 73%
    19:00 +9°C° 0 mm 5 m/s 767 mmHg 76%
    20:00 +8°C° 0 mm 6 m/s 767 mmHg 78%
    21:00 +9°C° 0 mm 6 m/s 767 mmHg 80%
    22:00 +9°C° 0 mm 5 m/s 767 mmHg 82%
    23:00 +9°C° 0 mm 5 m/s 767 mmHg 84%

    24 Abril, Quarta-feira

    Tempo Temperatura Precipitação Vento Pressão Humidade
    00:00 +9°C° 0 mm 5 m/s 767 mmHg 87%
    01:00 +8°C° 0 mm 4 m/s 767 mmHg 90%
    02:00 +9°C° 0 mm 3 m/s 767 mmHg 93%
    03:00 +8°C° 0 mm 4 m/s 767 mmHg 93%
    04:00 +8°C° 0 mm 4 m/s 767 mmHg 92%
    05:00 +8°C° 0 mm 4 m/s 767 mmHg 92%
    06:00 +9°C° 0 mm 5 m/s 767 mmHg 88%
    07:00 +10°C° 0 mm 5 m/s 768 mmHg 85%
    08:00 +10°C° 0 mm 5 m/s 768 mmHg 81%
    09:00 +12°C° 0 mm 5 m/s 768 mmHg 77%
    10:00 +13°C° 0 mm 5 m/s 768 mmHg 73%
    11:00 +13°C° 0 mm 5 m/s 768 mmHg 70%
    12:00 +14°C° 0 mm 4 m/s 768 mmHg 68%
    13:00 +14°C° 0 mm 4 m/s 768 mmHg 67%
    14:00 +14°C° 0 mm 4 m/s 768 mmHg 66%
    15:00 +13°C° 0 mm 4 m/s 768 mmHg 68%
    16:00 +13°C° 0 mm 5 m/s 768 mmHg 71%
    17:00 +12°C° 0 mm 5 m/s 768 mmHg 74%
    18:00 +10°C° 0 mm 5 m/s 768 mmHg 79%
    19:00 +9°C° 0 mm 5 m/s 768 mmHg 84%
    20:00 +8°C° 0 mm 4 m/s 768 mmHg 90%
    21:00 +8°C° 0 mm 4 m/s 768 mmHg 90%
    22:00 +9°C° 0 mm 3 m/s 768 mmHg 90%
    23:00 +9°C° 0 mm 3 m/s 769 mmHg 90%

    25 Abril, Quinta-feira

    Tempo Temperatura Precipitação Vento Pressão Humidade
    00:00 +9°C° 0 mm 3 m/s 768 mmHg 89%
    01:00 +9°C° 0 mm 3 m/s 768 mmHg 89%
    02:00 +9°C° 0 mm 3 m/s 768 mmHg 89%
    03:00 +9°C° 0 mm 3 m/s 768 mmHg 89%
    04:00 +9°C° 0 mm 3 m/s 768 mmHg 90%
    05:00 +9°C° 0 mm 3 m/s 768 mmHg 91%
    06:00 +10°C° 0 mm 3 m/s 768 mmHg 87%
    07:00 +11°C° 0 mm 4 m/s 769 mmHg 83%
    08:00 +12°C° 0 mm 4 m/s 769 mmHg 79%
    09:00 +13°C° 0 mm 4 m/s 769 mmHg 76%
    10:00 +13°C° 0 mm 4 m/s 769 mmHg 72%
    11:00 +14°C° 0 mm 4 m/s 769 mmHg 68%
    12:00 +14°C° 0 mm 4 m/s 769 mmHg 68%
    13:00 +14°C° 0 mm 4 m/s 769 mmHg 68%
    14:00 +14°C° 0 mm 4 m/s 768 mmHg 67%
    15:00 +14°C° 0 mm 4 m/s 768 mmHg 69%
    16:00 +13°C° 0 mm 5 m/s 768 mmHg 71%
    17:00 +13°C° 0 mm 5 m/s 768 mmHg 73%
    18:00 +12°C° 0 mm 4 m/s 768 mmHg 78%
    19:00 +10°C° 0 mm 4 m/s 768 mmHg 83%
    20:00 +9°C° 0 mm 3 m/s 768 mmHg 88%
    21:00 +9°C° 0 mm 3 m/s 768 mmHg 87%
    22:00 +9°C° 0 mm 3 m/s 768 mmHg 87%
    23:00 +9°C° 0 mm 2 m/s 767 mmHg 87%

    26 Abril, Sexta-feira

    Tempo Temperatura Precipitação Vento Pressão Humidade
    00:00 +9°C° 0 mm 2 m/s 767 mmHg 87%
    01:00 +9°C° 0 mm 2 m/s 767 mmHg 87%
    02:00 +9°C° 0 mm 2 m/s 766 mmHg 86%
    03:00 +9°C° 0 mm 3 m/s 766 mmHg 86%
    04:00 +9°C° 0 mm 3 m/s 766 mmHg 85%
    05:00 +9°C° 0 mm 3 m/s 766 mmHg 85%
    06:00 +10°C° 0 mm 3 m/s 766 mmHg 81%
    07:00 +11°C° 0 mm 3 m/s 766 mmHg 77%
    08:00 +12°C° 0 mm 3 m/s 766 mmHg 74%
    09:00 +13°C° 0 mm 3 m/s 766 mmHg 71%
    10:00 +14°C° 0 mm 3 m/s 766 mmHg 68%
    11:00 +16°C° 0 mm 3 m/s 766 mmHg 65%
    12:00 +16°C° 0 mm 3 m/s 765 mmHg 65%
    13:00 +16°C° 0 mm 3 m/s 765 mmHg 64%
    14:00 +16°C° 0 mm 3 m/s 764 mmHg 63%
    15:00 +16°C° 0 mm 3 m/s 764 mmHg 66%
    16:00 +14°C° 0 mm 3 m/s 764 mmHg 69%
    17:00 +14°C° 0 mm 3 m/s 763 mmHg 72%
    18:00 +13°C° 0 mm 3 m/s 763 mmHg 78%
    19:00 +11°C° 0 mm 3 m/s 763 mmHg 83%
    20:00 +10°C° 0 mm 3 m/s 763 mmHg 89%
    21:00 +10°C° 0 mm 2 m/s 763 mmHg 90%
    22:00 +10°C° 0 mm 2 m/s 763 mmHg 91%
    23:00 +11°C° 0 mm 1 m/s 763 mmHg 91%
    Mostrar mais